Wind_Speed
10 5 22 19 11 13 22 19 18 11 12 15 7 12 9 11 7 12 21 16 13 12 13 14 14 14 14 14 14 15 19 25 16 10 14 14 15 14 15 15 14 14 14 14 16 18 18 18 18
8 10 18 14 11 21 23 22 20 15 14 7 10 9 13 15 10 21 18 16 13 12 13 15 14 11 10 12 14 18 20 16 13 12 13 15 15 15 15 14 15 15 15 16 17 17 16 17 17
17 24 14 15 23 20 17 17 17 19 19 11 23 15 17 20 14 17 15 17 16 13 12 12 11 7 6 8 13 16 18 16 14 16 15 15 15 15 15 15 16 16 17 17 16 16 16 16 15
12 16 13 21 23 18 17 18 16 18 13 10 20 25 19 9 9 10 11 18 15 15 12 11 11 7 4 7 15 18 16 16 16 16 15 15 15 15 15 16 16 15 17 16 16 15 16 15 13
10 6 6 21 22 23 18 17 15 24 17 17 11 22 17 8 14 11 14 17 11 11 11 11 11 11 11 14 19 20 17 17 17 16 15 15 13 14 15 15 15 15 16 15 15 15 15 13 14
14 11 14 24 22 17 16 22 14 9 9 15 11 19 15 22 20 9 9 9 6 6 10 11 12 14 20 23 22 19 17 17 17 14 14 14 14 15 15 15 15 14 15 15 14 14 14 13 14
7 3 21 19 17 13 19 16 18 11 7 9 9 14 23 29 15 7 5 7 10 7 9 11 12 14 18 21 20 18 18 17 15 13 13 13 13 15 15 14 13 12 13 14 13 13 12 11 13
19 6 20 17 12 13 13 16 21 9 9 5 7 15 25 30 17 11 2 8 4 9 10 12 13 15 17 17 16 17 16 16 14 13 13 11 12 12 12 13 13 11 11 13 12 11 12 10 10
14 12 19 14 15 20 19 18 16 12 10 4 3 8 21 32 18 12 4 3 11 12 12 12 12 14 15 16 16 14 14 14 13 12 11 11 11 11 11 9 10 9 9 10 10 9 9 9 8
21 21 15 19 17 19 14 13 16 19 12 12 5 14 24 32 21 12 5 5 12 11 18 13 12 12 14 15 14 12 12 13 11 10 9 10 9 9 9 8 7 8 8 8 7 6 6 4 4
13 16 18 19 16 16 14 12 13 18 10 5 7 16 22 30 17 10 3 9 8 7 8 8 11 12 12 14 12 11 11 10 9 9 8 8 8 8 7 6 6 4 4 4 5 4 2 1 7
19 15 11 10 15 23 20 20 17 15 9 4 6 12 19 24 19 10 5 6 3 2 4 3 6 11 12 10 10 11 11 8 7 4 6 4 9 2 5 4 4 4 2 2 1 4 2 4 6
14 14 10 7 12 17 10 15 15 16 8 2 11 13 16 21 15 15 3 3 3 7 6 3 4 5 10 7 11 10 10 8 6 4 3 2 5 5 4 5 5 4 3 2 3 3 1 2 4
16 9 10 10 11 14 13 18 15 7 8 9 9 13 15 20 18 11 8 7 8 10 2 4 2 1 3 3 4 8 7 5 4 4 4 2 3 2 2 2 2 1 2 3 3 3 5 7 9
11 9 8 7 15 10 5 19 6 10 13 13 11 11 12 13 17 20 13 11 13 12 3 6 3 2 1 1 2 6 6 6 4 6 6 2 2 2 2 2 4 3 8 3 2 2 3 3 4
5 9 6 10 11 19 13 18 7 8 12 12 10 11 10 13 17 15 20 18 18 12 3 3 3 3 3 3 2 3 4 5 4 5 5 4 2 1 1 1 4 8 5 2 1 1 1 2 2
7 10 10 11 8 3 7 16 10 5 8 8 5 10 9 14 13 12 16 16 18 10 4 2 4 4 3 3 4 4 6 4 6 5 4 4 4 4 4 2 1 2 2 2 3 3 2 2 4
13 21 15 8 5 7 6 16 12 14 5 5 5 8 8 12 9 8 9 10 14 8 4 4 1 4 4 4 4 5 5 2 4 2 8 4 2 3 3 1 2 1 1 1 3 2 4 5 8
11 6 9 7 6 2 10 16 19 18 12 1 2 4 4 5 6 5 7 6 8 4 4 4 2 3 2 3 2 4 4 4 3 2 1 2 3 2 2 1 1 3 3 2 4 6 7 8 5
3 6 12 9 5 0 2 17 17 20 15 4 4 6 3 5 5 2 5 6 4 6 6 6 3 2 2 2 3 4 5 4 5 3 3 3 2 2 1 4 3 3 3 3 4 4 7 7 6
3 5 4 3 5 9 9 5 19 17 16 14 8 9 9 5 4 2 3 2 4 7 7 4 3 1 2 2 2 3 5 6 4 4 2 4 4 4 4 4 5 6 6 6 7 7 7 7 8
9 6 7 6 7 15 14 13 14 22 19 15 16 14 14 13 7 3 5 5 10 9 7 6 4 2 1 1 2 4 6 7 8 5 5 5 6 4 4 7 5 6 8 7 7 6 6 7 8
12 8 9 8 11 14 10 14 10 18 23 17 11 17 19 17 14 3 7 6 8 10 8 6 4 3 2 2 3 5 7 8 11 10 6 4 7 6 7 8 9 8 9 10 10 7 7 7 6
14 14 11 12 14 17 15 12 7 9 21 16 7 18 19 19 21 15 8 7 6 6 8 7 5 5 4 4 5 6 7 9 8 11 9 9 8 7 8 9 9 10 11 12 12 10 9 9 8
9 14 12 7 4 9 20 16 10 7 3 2 7 15 7 27 28 20 17 14 15 6 6 9 8 5 3 5 7 7 7 11 13 12 13 9 11 11 12 14 9 8 10 13 14 13 11 12 11
13 18 18 4 5 10 22 14 13 14 12 7 8 11 5 5 16 27 26 27 19 12 9 8 7 4 2 5 8 10 11 13 15 18 17 17 16 12 12 14 14 8 7 10 12 12 10 11 12
6 8 12 13 10 12 18 16 13 9 5 2 5 7 11 7 15 32 24 20 30 18 14 10 7 7 2 5 7 10 14 15 16 18 20 20 20 17 17 16 9 9 7 11 9 10 12 12 10
15 9 7 7 2 2 9 15 17 9 3 4 4 6 13 7 2 8 28 26 31 19 16 14 12 13 10 9 9 11 14 16 17 19 21 22 20 21 21 21 16 11 11 12 11 11 11 13 11
13 3 4 10 3 6 3 8 9 9 5 2 3 8 11 10 4 11 20 38 33 24 20 15 11 14 14 7 7 10 13 17 19 21 22 22 23 23 22 21 18 16 14 14 14 11 11 12 11
16 4 3 3 4 10 21 15 12 12 11 5 7 9 7 6 6 4 3 13 12 20 29 4 9 11 7 5 7 6 13 16 13 14 17 20 23 25 33 23 22 19 17 16 16 16 15 15 12
Wind_Direction
88 28 133 113 101 87 93 91 93 94 61 60 92 145 150 159 136 123 107 107 113 117 115 119 117 118 111 114 115 104 102 130 138 113 113 115 122 116 112 108 104 99 100 102 102 106 112 116 112
106 53 115 101 54 87 82 92 96 77 84 77 82 127 112 119 121 118 127 115 118 116 114 120 116 116 113 109 115 118 129 129 126 115 117 112 111 110 110 110 105 102 102 105 108 111 114 115 114
87 67 66 97 91 110 102 105 93 94 98 77 96 95 115 107 109 110 121 123 119 119 113 121 120 119 129 135 126 130 130 134 126 120 110 106 106 107 113 109 107 104 104 107 109 112 112 109 113
107 95 90 95 91 90 82 105 94 123 121 48 104 99 113 109 110 110 105 122 128 109 103 103 97 95 90 130 141 135 130 126 120 109 107 106 105 110 109 106 104 104 105 109 108 109 108 110 112
109 117 124 98 94 99 103 106 95 119 103 119 128 116 123 133 103 111 74 87 78 92 98 98 93 80 83 117 135 135 126 119 116 103 105 101 104 107 108 103 106 104 104 107 109 111 114 117 109
67 77 107 91 81 88 86 91 94 105 97 118 109 130 123 112 138 117 38 44 57 83 100 100 94 91 96 109 121 123 119 115 106 107 105 108 109 111 105 105 102 100 102 105 110 113 116 117 113
100 43 95 87 86 100 107 106 100 125 100 96 99 117 119 117 140 123 153 82 89 120 110 107 104 106 108 114 112 115 114 115 111 115 113 116 111 109 109 105 102 99 101 104 112 114 118 120 115
33 67 93 71 90 98 102 110 98 107 116 118 39 128 130 123 150 163 277 19 53 121 129 122 116 109 111 121 124 116 115 120 123 122 121 120 116 109 104 102 101 101 102 107 111 115 120 123 127
42 47 77 75 93 106 74 101 111 90 130 104 57 89 127 122 152 176 151 341 116 129 141 123 121 119 117 117 125 122 123 125 127 128 127 126 122 116 109 106 100 107 105 106 105 109 115 122 122
73 68 80 71 69 104 82 92 123 114 137 159 148 126 132 132 165 168 184 34 49 112 133 132 134 131 126 121 121 125 124 124 129 132 138 129 125 121 127 124 120 124 120 120 123 116 107 107 133
64 64 83 78 58 81 105 132 55 132 158 203 117 138 135 140 165 159 112 77 54 62 90 105 135 142 144 135 131 130 121 125 127 138 127 147 147 135 140 144 149 129 110 105 108 118 169 196 353
75 68 82 68 76 94 64 78 77 126 174 224 129 132 133 132 151 157 174 167 28 44 41 95 107 155 147 134 146 151 141 142 136 123 111 112 102 153 163 169 140 131 79 156 219 126 37 353 333
89 69 86 85 92 97 94 99 92 127 166 139 130 135 134 130 142 164 128 198 239 318 301 221 47 110 113 154 163 154 148 150 144 142 107 80 113 142 192 153 159 169 135 169 130 97 71 322 301
58 140 130 70 66 86 92 128 55 116 102 102 123 134 135 138 145 161 188 203 236 280 262 158 81 24 103 200 146 151 151 148 159 164 166 207 150 141 194 159 123 184 94 110 103 44 13 360 346
98 139 180 69 66 60 87 120 97 93 91 93 115 120 134 142 154 162 197 206 235 266 283 139 168 219 210 198 265 157 159 125 193 163 187 181 63 201 201 175 191 44 100 105 60 22 22 16 342
161 157 60 157 103 96 132 136 163 105 87 94 107 142 161 176 174 188 195 222 228 259 276 149 173 184 204 218 227 262 283 156 172 177 160 153 165 217 229 206 148 204 211 110 134 156 42 338 315
194 228 204 160 134 245 119 159 190 167 74 97 137 163 180 185 205 214 210 215 223 260 275 212 152 202 155 189 196 240 273 296 209 152 205 201 197 197 209 232 265 127 63 29 104 135 12 300 329
260 244 170 119 141 216 130 162 189 187 198 54 176 175 187 195 213 222 220 205 224 243 240 229 143 172 153 186 180 221 267 255 292 168 215 214 225 241 228 202 213 332 112 342 356 343 331 315 358
25 95 140 100 62 12 193 172 184 181 205 263 327 179 200 217 229 216 222 184 210 182 180 205 249 197 200 187 204 205 243 273 285 254 194 239 213 248 258 309 188 237 265 305 296 305 320 323 310
344 301 109 106 56 45 108 190 178 191 201 228 322 316 262 224 221 218 237 197 156 149 177 191 220 206 224 243 233 243 256 264 260 276 241 215 263 263 282 303 325 312 304 309 294 314 324 319 318
215 300 63 15 308 260 233 201 196 188 209 220 237 284 283 300 249 170 193 128 138 148 154 180 199 199 204 224 245 253 264 276 291 292 259 234 229 256 282 269 290 300 305 298 302 317 321 322 326
302 318 314 315 293 289 228 193 201 196 190 204 219 234 261 280 289 271 190 136 105 128 154 176 182 212 250 283 314 327 330 329 331 339 291 249 254 257 260 286 293 296 301 301 299 303 307 306 323
292 312 310 293 270 286 218 151 205 193 193 201 212 227 240 264 274 263 205 165 124 114 126 172 191 213 260 270 306 330 347 338 333 336 327 215 231 250 267 263 274 287 289 292 297 303 301 296 301
278 274 278 276 266 278 244 141 159 142 192 223 257 238 246 237 253 287 262 257 189 137 128 143 190 211 260 283 289 306 308 309 322 323 322 305 298 269 288 291 292 278 284 289 291 294 295 295 294
252 263 270 287 229 245 138 116 138 152 151 145 248 248 241 251 218 255 258 276 250 191 177 134 156 188 223 283 299 297 285 285 298 310 308 295 305 293 286 291 293 281 284 292 290 295 296 293 282
252 272 254 283 161 184 124 128 128 126 117 80 11 359 166 55 327 222 227 265 262 213 206 189 168 100 283 260 280 298 291 283 282 294 302 303 298 300 283 296 271 260 278 285 289 292 294 293 291
280 322 290 296 184 132 131 135 125 149 124 177 89 36 301 248 355 218 238 220 238 242 229 217 218 224 319 312 285 283 292 296 293 283 288 293 294 291 290 280 290 281 294 288 287 292 291 287 284
257 293 319 323 147 123 116 132 128 144 174 222 270 335 335 278 201 241 247 226 212 242 255 272 274 276 260 283 319 315 303 296 296 294 289 281 278 278 284 292 294 293 289 274 277 281 275 278 278
202 270 243 297 355 140 128 134 158 130 175 239 47 3 2 310 237 70 207 190 308 221 224 254 281 297 286 290 309 316 327 309 296 289 290 288 280 272 270 272 281 289 287 287 282 275 272 279 280
243 287 265 4 63 84 117 120 131 141 142 109 48 37 17 338 297 218 273 283 301 298 202 256 139 277 294 324 314 311 353 338 321 308 286 282 281 275 258 245 242 251 260 267 276 272 270 270 265
Height
3182 3182 3184 3183 3186 3182 3184 3188 3187 3184 3184 3189 3187 3188 3188 3190 3192 3198 3199 3202 3205 3206 3208 3208 3209 3210 3210 3211 3212 3212 3210 3213 3216 3218 3218 3219 3220 3220 3221 3221 3220 3221 3223 3225 3225 3227 3228 3228 3229
3188 3187 3190 3186 3189 3186 3188 3190 3190 3189 3186 3192 3188 3187 3189 3191 3194 3194 3200 3204 3206 3208 3209 3210 3210 3211 3212 3213 3214 3215 3215 3216 3218 3219 3220 3220 3221 3222 3222 3222 3222 3224 3225 3227 3229 3230 3231 3232 3232
3189 3187 3187 3192 3188 3191 3191 3193 3192 3191 3191 3190 3189 3193 3192 3192 3195 3197 3203 3205 3209 3211 3211 3212 3212 3212 3212 3214 3216 3216 3218 3219 3220 3221 3221 3222 3223 3223 3224 3224 3224 3226 3228 3229 3231 3232 3233 3235 3235
3192 3195 3194 3193 3192 3192 3194 3194 3193 3193 3193 3191 3192 3196 3199 3199 3198 3201 3204 3210 3212 3212 3213 3213 3213 3213 3213 3214 3216 3218 3220 3222 3223 3223 3224 3224 3225 3226 3226 3226 3227 3229 3231 3232 3233 3234 3235 3236 3237
3192 3194 3195 3195 3195 3194 3194 3196 3197 3194 3195 3196 3196 3198 3201 3205 3203 3203 3206 3211 3212 3214 3215 3215 3215 3214 3213 3214 3217 3220 3222 3224 3225 3225 3227 3227 3228 3229 3230 3230 3231 3233 3234 3235 3235 3235 3236 3237 3239
3190 3195 3198 3197 3196 3197 3195 3196 3197 3197 3199 3200 3199 3199 3204 3207 3207 3207 3209 3212 3215 3216 3217 3217 3217 3217 3217 3217 3220 3221 3223 3225 3226 3228 3229 3230 3231 3232 3233 3234 3235 3236 3237 3238 3238 3238 3239 3240 3241
3197 3193 3197 3197 3197 3197 3198 3200 3201 3197 3200 3201 3202 3200 3207 3210 3210 3212 3213 3217 3218 3218 3218 3219 3220 3220 3220 3221 3223 3224 3226 3228 3229 3231 3232 3233 3234 3235 3236 3237 3238 3239 3240 3241 3241 3241 3242 3243 3244
3195 3197 3199 3197 3196 3196 3201 3203 3204 3203 3203 3204 3205 3205 3207 3211 3213 3214 3216 3217 3219 3219 3220 3221 3222 3222 3223 3224 3226 3227 3229 3231 3233 3234 3235 3235 3236 3237 3238 3239 3240 3241 3242 3243 3244 3244 3244 3245 3246
3200 3203 3201 3199 3199 3200 3203 3204 3206 3207 3205 3207 3207 3207 3210 3213 3216 3215 3217 3218 3221 3221 3222 3223 3224 3225 3226 3227 3229 3230 3232 3233 3234 3235 3236 3237 3238 3239 3240 3242 3242 3242 3244 3245 3246 3247 3246 3247 3248
3205 3206 3203 3203 3202 3204 3204 3205 3207 3210 3209 3210 3209 3211 3213 3216 3218 3220 3221 3220 3220 3221 3224 3224 3226 3227 3228 3229 3231 3232 3234 3235 3235 3237 3238 3239 3239 3240 3241 3243 3244 3244 3246 3247 3247 3248 3248 3248 3249
3210 3210 3211 3208 3207 3208 3206 3208 3208 3209 3209 3210 3211 3212 3214 3217 3219 3222 3223 3223 3224 3223 3224 3224 3227 3229 3229 3230 3231 3234 3235 3237 3238 3238 3239 3239 3240 3242 3243 3244 3245 3247 3248 3248 3248 3248 3247 3249 3248
3212 3213 3212 3211 3213 3210 3211 3210 3211 3211 3211 3211 3213 3214 3215 3218 3222 3223 3223 3225 3224 3225 3225 3226 3227 3230 3229 3230 3233 3235 3236 3238 3238 3239 3239 3240 3241 3243 3243 3244 3246 3248 3248 3250 3250 3249 3248 3248 3247
3216 3219 3215 3212 3215 3216 3217 3212 3213 3214 3213 3213 3214 3214 3217 3219 3222 3225 3226 3225 3225 3226 3226 3228 3229 3230 3229 3231 3234 3235 3236 3237 3238 3239 3240 3240 3242 3244 3244 3245 3247 3247 3249 3250 3250 3249 3250 3249 3247
3215 3213 3215 3213 3213 3215 3214 3216 3216 3218 3215 3214 3215 3216 3218 3221 3224 3227 3228 3227 3227 3228 3230 3230 3231 3231 3232 3232 3233 3234 3236 3238 3239 3240 3241 3241 3242 3244 3245 3245 3245 3247 3248 3248 3249 3248 3249 3247 3246
3214 3214 3215 3216 3213 3215 3215 3217 3217 3218 3217 3216 3217 3217 3219 3222 3225 3229 3229 3229 3229 3229 3231 3231 3232 3233 3233 3235 3235 3236 3236 3238 3239 3240 3241 3242 3242 3245 3244 3244 3246 3246 3247 3248 3248 3249 3249 3250 3249
3214 3214 3213 3216 3215 3216 3220 3220 3219 3218 3218 3218 3218 3219 3221 3223 3226 3228 3230 3230 3229 3228 3231 3232 3233 3234 3235 3235 3236 3236 3236 3237 3239 3240 3241 3242 3242 3243 3244 3244 3244 3246 3247 3247 3248 3249 3250 3250 3249
3216 3213 3213 3213 3213 3217 3218 3218 3219 3219 3219 3218 3220 3221 3223 3225 3226 3227 3228 3229 3228 3228 3230 3232 3234 3235 3236 3236 3237 3236 3238 3239 3239 3240 3241 3243 3242 3243 3244 3244 3244 3244 3245 3246 3247 3249 3249 3250 3249
3209 3210 3212 3210 3213 3215 3216 3218 3219 3220 3219 3219 3221 3223 3224 3225 3225 3226 3227 3228 3228 3229 3230 3231 3233 3235 3236 3236 3236 3237 3237 3239 3239 3241 3243 3243 3243 3243 3243 3244 3244 3243 3244 3245 3245 3246 3247 3246 3244
3207 3208 3210 3210 3211 3213 3214 3215 3216 3218 3220 3220 3221 3221 3223 3224 3225 3226 3227 3227 3227 3228 3229 3231 3232 3234 3235 3237 3237 3238 3238 3238 3239 3240 3242 3243 3243 3244 3244 3243 3243 3243 3243 3244 3244 3244 3244 3244 3245
3210 3210 3212 3212 3210 3213 3214 3215 3216 3217 3219 3219 3220 3220 3222 3224 3224 3225 3226 3226 3227 3228 3229 3231 3232 3234 3235 3236 3237 3238 3238 3238 3239 3240 3241 3242 3243 3244 3244 3243 3243 3242 3242 3242 3242 3242 3242 3243 3243
3210 3212 3211 3211 3212 3213 3214 3215 3216 3219 3218 3219 3220 3220 3219 3222 3223 3224 3225 3225 3225 3227 3229 3231 3232 3233 3234 3235 3237 3237 3238 3238 3239 3240 3241 3240 3241 3241 3242 3243 3244 3243 3243 3242 3241 3241 3242 3242 3242
3210 3209 3209 3209 3210 3208 3207 3213 3213 3215 3218 3218 3217 3219 3218 3218 3220 3223 3224 3225 3225 3226 3228 3229 3231 3232 3233 3235 3236 3237 3237 3237 3238 3238 3238 3239 3240 3240 3241 3242 3243 3244 3244 3243 3242 3241 3239 3240 3240
3209 3208 3207 3207 3207 3206 3209 3210 3210 3212 3215 3217 3219 3218 3220 3219 3218 3220 3222 3222 3224 3225 3226 3227 3229 3230 3232 3233 3234 3235 3236 3236 3235 3235 3234 3238 3239 3240 3240 3241 3242 3242 3242 3243 3242 3241 3240 3238 3237
3207 3206 3206 3206 3207 3206 3204 3206 3210 3211 3214 3218 3220 3219 3213 3218 3220 3220 3223 3224 3223 3223 3225 3225 3227 3228 3229 3230 3232 3233 3234 3235 3235 3234 3234 3236 3237 3237 3239 3239 3239 3239 3240 3240 3239 3239 3239 3238 3235
3205 3205 3205 3205 3205 3203 3201 3205 3210 3212 3215 3219 3216 3216 3209 3208 3210 3220 3220 3220 3220 3220 3222 3223 3225 3226 3228 3228 3229 3231 3233 3232 3232 3233 3233 3236 3237 3235 3236 3236 3236 3236 3236 3237 3237 3236 3235 3235 3233
3203 3204 3204 3204 3200 3200 3201 3207 3210 3212 3215 3214 3214 3214 3213 3212 3208 3212 3216 3217 3217 3216 3218 3220 3223 3226 3227 3227 3228 3229 3230 3231 3230 3230 3231 3232 3232 3231 3232 3231 3232 3234 3233 3233 3234 3234 3232 3231 3230
3200 3200 3200 3198 3197 3197 3201 3208 3209 3210 3212 3214 3216 3216 3215 3212 3201 3195 3208 3208 3214 3217 3218 3219 3222 3224 3226 3226 3226 3227 3228 3229 3229 3229 3228 3229 3228 3229 3228 3229 3234 3231 3229 3230 3230 3231 3229 3229 3228
3201 3200 3198 3195 3197 3201 3201 3204 3206 3209 3210 3210 3212 3213 3211 3210 3210 3205 3202 3206 3212 3221 3222 3221 3223 3226 3225 3224 3225 3225 3226 3227 3227 3227 3227 3226 3226 3224 3223 3222 3223 3223 3225 3226 3225 3227 3226 3224 3224
3199 3197 3196 3196 3195 3198 3205 3208 3208 3209 3208 3208 3209 3209 3209 3209 3209 3206 3198 3175 3192 3193 3218 3218 3214 3223 3225 3223 3223 3222 3223 3223 3223 3223 3223 3223 3222 3221 3219 3216 3218 3218 3218 3221 3221 3221 3221 3222 3220
3199 3198 3197 3196 3196 3196 3198 3207 3208 3207 3206 3207 3208 3208 3209 3210 3210 3208 3200 3195 3195 3205 3208 3184 3201 3219 3222 3222 3220 3220 3220 3220 3219 3219 3219 3218 3217 3216 3208 3202 3211 3214 3214 3216 3216 3217 3217 3216 3213